Regional Weather Roundup
Issued by NWS Green Bay, WI

Home | Current Version | Previous Version | Graphics & Text | Print | Product List | Glossary Off
Versions: 1 2 3 4 5 6 7 8 9 10 11 12 13 14 15 16 17 18 19 20 21 22 23 24 25 26 27 28 29 30 31 32 33 34 35 36 37 38 39 40 41 42 43 44 45 46 47 48 49 50

000
ASUS43 KGRB 211859
RWRGRB

NORTH-CENTRAL AND NORTHEAST WISCONSIN REGIONAL WEATHER ROUNDUP
NATIONAL WEATHER SERVICE GREEN BAY WI
200 PM CDT THU AUG 21 2014

WIZ005-009-010>012-018-019-212000-
NORTH CENTRAL WISCONSIN

CITY           SKY/WX    TMP DP  RH WIND       PRES   REMARKS
IRONWOOD       PTSUNNY   73  66  78 S10       29.88S
MANITOWISH WTR NOT AVBL
ARBOR VITAE    NOT AVBL
EAGLE RIVER    NOT AVBL
LAND O LAKES   NOT AVBL
RHINELANDER    CLOUDY    69  64  84 SE10      29.94F
PHILLIPS       CLOUDY    67  65  93 SE8       29.91S
ANTIGO         NOT AVBL
TOMAHAWK       NOT AVBL
MERRILL        NOT AVBL
$$

WIZ013-073-212000-
NORTHEAST WISCONSIN

CITY           SKY/WX    TMP DP  RH WIND       PRES   REMARKS
IRON MOUNTAIN  CLOUDY    69  62  78 S6        29.96S
MARINETTE      CLOUDY    70  61  73 S10       29.96F
$$

WIZ017-030-035>037-045-212000-
CENTRAL WISCONSIN

CITY           SKY/WX    TMP DP  RH WIND       PRES   REMARKS
MEDFORD        NOT AVBL
WAUSAU         CLOUDY    67  65  93 E8        29.89F
MOSINEE        CLOUDY    70  68  94 E9        29.91F
MARSHFIELD     PTSUNNY   78  70  76 S9        29.89R
WISC RAPIDS    PTSUNNY   77  69  76 S8        29.91R
STEVENS POINT  NOT AVBL
WAUPACA        NOT AVBL
SHAWANO        CLOUDY    69  66  89 E9        29.94F
CLINTONVILLE   NOT AVBL
$$

WIZ038-039-048-051-212000-
FOX VALLEY

CITY           SKY/WX    TMP DP  RH WIND       PRES   REMARKS
NWS GREEN BAY  LGT RAIN  68  66  94 E9        29.95F
APPLETON       CLOUDY    68  66  94 E9        29.93F
OSHKOSH        CLOUDY    71  69  93 SE10      29.91S
FOND DU LAC    CLOUDY    71  67  87 SE9       29.92F
$$

WIZ022-050-052-212000-
EAST CENTRAL WISCONSIN

CITY           SKY/WX    TMP DP  RH WIND       PRES   REMARKS
STURGEON BAY   CLOUDY    66  61  82 SE7       29.98F
MANITOWOC      NOT AVBL
SHEBOYGAN      LGT RAIN  67  65  93 E7        29.94F FOG
$$

LMZ563-521-522-541>543-212000-
LAKESHORE

STATION/POSITION TIME  TEMP    WIND        PRES    VSBY  WAVE
                       AIR SEA DIR/SP/G                  HT/PER
                 (UTC) (F)     (DEG/KT/KT) (MB)    (MI)  (FT/S)
SHEBOYGAN LKSHOR 1800   67 67  220/  2/  3 1015.8R
KEWAUNEE LKSHORE 1800   65      60/  1/  2 1014.5R
ALGOMA MARINA    1800             CALM       N/A
TWO RIVERS CG    1800   65 72                N/A       6   1
NORTHPORT PIER   1800   66     140/  7/  9 1015.2S
N MID LAKE BUOY  1800   65 65  110/  4/  6 1014.7F         0
S GREEN BAY BUOY 1800   68     VRB  8      1016.1R
SISTER BAY LKSHO 1800   70     170/ 10/ 12   N/A
STURGEON BAY CG  1800   65 64   90/  4     1015.8      6   1
CHAMBERS ISLAND  1800   69     120/  6/  9 1015.2S
MENOMINEE LKSHOR 1800          140/  8/  9   N/A
$$


USA.gov is the U.S. government's official web portal to all federal, state and local government web resources and services.